Location: La Tine
(46.4708°N, 7.0525°E)
Time: 17:21:43
(UTC+00:00)

OBJECT-B - Pass Details

Date: 18 September 2020
Orbit: 421 x 433 km, 97.0° (Epoch: 09 October)

Event Time Altitude Azimuth Distance (km) Brightness Sun altitude
Exits shadow 20:34:37 16° 285° (WNW) 1,210 3.7 -29.2°
Drops below altitude 10° 20:36:03 10° 310° (NW) 1,518 4.5 -29.4°
Sets 20:38:35 0° 332° (NNW) 2,392 5.6 -29.7°
